"Pseudo-MPEC" for P10V5mQ

Created 2019 Dec 11 17:07:13 UT using Find_Orb

Click here for an explanation of pseudo-MPECs

 
 Astrometry: 
     P10V5mQ  C2019 12 0337FKn[Amb6Y.FG,gp[RJeHm]u`;bwagEv.m8xLGDNe=Z[^+j!@U$F51
     P10V5mQ  C2019 12 03g8SN-o%H]%EkrAstrometry]DD^BrI_-_wlUgmvCq=5JkC@KEWPDF51
     P10V5mQ  C2019 12 03H\FF@redacted;isD()L^clickm?46kRow#iHFRmI.OoUI^(mgbPF51
     P10V5mQ ^C2019 12 04.21868003 10 45.191-06 42 58.19   ~C4Kb 21.07GVNEOCP568
     P10V5mQ ^C2019 12 04.21962803 10 44.969-06 42 56.32   ~C4Kb 21.09GVNEOCP568
     P10V5mQ ^C2019 12 04.22060003 10 44.746-06 42 54.40   ~C4Kb 21.13GVNEOCP568
     P10V5mQ KC2019 12 06.16105 03 03 22.69 -05 36 50.1    ~C65q 21.8 RoNEOCP291
     P10V5mQ KC2019 12 06.18521 03 03 17.19 -05 36 00.5    ~C65q 21.4 RoNEOCP291
     P10V5mQ  C2019 12 06.19981 03 03 13.85 -05 35 31.3    ~C65M 22.0 GVNEOCPI52
     P10V5mQ  C2019 12 06.20287 03 03 13.14 -05 35 24.4    ~C65M 21.1 GVNEOCPI52
     P10V5mQ  C2019 12 06.20593 03 03 12.48 -05 35 18.2    ~C65M 21.5 GVNEOCPI52
     P10V5mQ  C2019 12 06.20898 03 03 11.79 -05 35 11.4    ~C65M 21.8 GVNEOCPI52
     P10V5mQ KC2019 12 06.20943 03 03 11.68 -05 35 10.5    ~C65q 21.5 RoNEOCP291
     P10V5mQ |C2019 12 11m45:-#QR/1H-47c68]aJ2VY\oa)\IZ)7ICyLNQ\9yCMk,here)!j807
     P10V5mQ |C2019 12 11'h:$oV-+%Ahqjfpq:G-T!*[F6SforOexplanationmUsNCMhGCD.807
     P10V5mQ |C2019 12 11($PKOt7Ek+Fx_G(uGsNv@]InZw6[t5jV9t'Bng`Jg8ciu86HA3B$807

Station data:
(291) LPL/Spacewatch II  (N31.961669 W111.599905)  US/Arizona.  Observers J.
   V. Scotti, R. S. McMillan. 1.8-m f/2.7 reflector + CCD.
(568) Mauna Kea  (N19.826116 W155.472200)  US/Hawaii.
(807) Cerro Tololo Observatory, La Serena  (S30.169136 W70.805900)  Chile.
(F51) Pan-STARRS 1, Haleakala  (N20.707235 W156.255910)  US/Hawaii.
   Observers N. Primak, A. Schultz, S. Watters, J. Thiel, T. Goggia. Measurer
   PS1 Science Consortium. 1.8-m Ritchey-Chrétien + CCD.
(I52) Steward Observatory, Mt. Lemmon Station  (N32.442547 W110.788920)
   US/Arizona.  Observers T. A. Pruyne, B. M. Africano, E. J. Christensen, G.
   A. Farneth, D. C. Fuls, A. R. Gibbs, A. D. Grauer, H. Gröller, J. A.
   Johnson, R. A. Kowalski, S. M. Larson, G. J. Leonard, D. Rankin, R. L.
   Seaman, F. C. Shelly. 1.0-m reflector + CCD.

Orbital elements:  P10V5mQ
   Perihelion 2020 Jul 6.368634 +/- 0.372 TT =  8:50:50 (JD 2459036.868634)
Epoch 2019 Dec 11.0 TT = JDT 2458828.5   Earth MOID: 0.3213   Ve: 0.0355
M 200.10101260 +/- 0.07             Ma: 0.0983                AutoNEOCP
n   0.76738511 +/- 0.00119          Peri.  161.05582 +/- 0.030
a   1.18157275 +/- 0.00122          Node    65.80748 +/- 0.032
e   0.4250652 +/- 0.000675          Incl.   60.35851 +/- 0.11
P   1.28/469.12d           H 20.1   G  0.15   U  8.2  
q 0.67932722 +/- 0.0015    Q 1.68381829 +/- 0.000945
From 16 observations 2019 Dec. 3-11; mean residual 0".19
Residuals in arcseconds: 
191203 F51  .04+  .08+    191206 291  .31+  .15+    191206 291  .11-  .27+    
191203 F51  .17-  .02+    191206 291  .06+  .08+    191211 807  .15-  .00     
191203 F51  .04+  .04-    191206 I52  .18-  .66-    191211 807  .06+  .08-    
191204 568  .01+  .01+    191206 I52  .41-  .06-    191211 807  .09+  .07+    
191204 568  .02+  .04-    191206 I52  .11+  .15-    
191204 568  .10+  .08-    191206 I52  .14+  .37+    

Ephemerides (geocentric):
Date (UTC) HH   RA              Dec         delta   r     elong  mag " sig PA
---- -- -- --  -------------   -----------  ------ ------ -----  --- ---- ---
2019 12 11 17  02 44 02.000   -02 25 10.48  .81402 1.6678 135.8 21.9 .174  38
2019 12 11 18  02 43 53.908   -02 23 44.25  .81429 1.6677 135.8 21.9 .180  38
2019 12 11 19  02 43 45.826   -02 22 18.02  .81457 1.6677 135.7 21.9 .186  38
2019 12 11 20  02 43 37.753   -02 20 51.80  .81485 1.6676 135.7 21.9 .192  38
2019 12 11 21  02 43 29.691   -02 19 25.60  .81512 1.6676 135.6 21.9 .199  38
2019 12 11 22  02 43 21.637   -02 17 59.41  .81540 1.6675 135.6 21.9 .205  38
2019 12 11 23  02 43 13.594   -02 16 33.23  .81568 1.6675 135.5 21.9 .212  38
2019 12 12 00  02 43 05.560   -02 15 07.06  .81596 1.6674 135.4 21.9 .218  38
2019 12 12 01  02 42 57.537   -02 13 40.90  .81624 1.6674 135.4 21.9 .225  39
2019 12 12 02  02 42 49.522   -02 12 14.75  .81652 1.6673 135.3 21.9 .231  39
2019 12 12 03  02 42 41.518   -02 10 48.62  .81680 1.6673 135.3 21.9 .238  39
2019 12 12 04  02 42 33.523   -02 09 22.50  .81708 1.6672 135.2 21.9 .245  39
2019 12 12 05  02 42 25.538   -02 07 56.39  .81736 1.6671 135.2 21.9 .252  39
2019 12 12 06  02 42 17.563   -02 06 30.30  .81765 1.6671 135.1 21.9 .258  39
2019 12 12 07  02 42 09.598   -02 05 04.22  .81793 1.6670 135.1 21.9 .265  39
2019 12 12 08  02 42 01.642   -02 03 38.15  .81822 1.6670 135.0 21.9 .272  39
2019 12 12 09  02 41 53.696   -02 02 12.09  .81850 1.6669 135.0 21.9 .279  39
2019 12 12 10  02 41 45.760   -02 00 46.05  .81879 1.6669 134.9 21.9 .286  39
2019 12 12 11  02 41 37.834   -01 59 20.02  .81907 1.6668 134.9 21.9 .294  39
2019 12 12 12  02 41 29.918   -01 57 54.01  .81936 1.6668 134.8 21.9 .301  39
2019 12 12 13  02 41 22.011   -01 56 28.01  .81965 1.6667 134.8 21.9 .308  39
2019 12 12 14  02 41 14.114   -01 55 02.02  .81993 1.6667 134.7 21.9 .315  40
2019 12 12 15  02 41 06.227   -01 53 36.05  .82022 1.6666 134.7 21.9 .323  40
2019 12 12 16  02 40 58.350   -01 52 10.10  .82051 1.6666 134.6 21.9 .330  40
2019 12 12 17  02 40 50.482   -01 50 44.16  .82080 1.6665 134.6 21.9 .338  40
2019 12 12 18  02 40 42.625   -01 49 18.23  .82109 1.6665 134.5 21.9 .345  40
2019 12 12 19  02 40 34.777   -01 47 52.32  .82138 1.6664 134.5 21.9 .353  40
2019 12 12 20  02 40 26.939   -01 46 26.42  .82167 1.6664 134.4 21.9 .361  40
2019 12 12 21  02 40 19.111   -01 45 00.54  .82197 1.6663 134.4 21.9 .368  40
2019 12 12 22  02 40 11.292   -01 43 34.68  .82226 1.6663 134.3 21.9 .376  40
2019 12 12 23  02 40 03.484   -01 42 08.83  .82255 1.6662 134.3 21.9 .384  40
2019 12 13 00  02 39 55.685   -01 40 43.00  .82285 1.6662 134.2 21.9 .392  40
2019 12 13 01  02 39 47.897   -01 39 17.18  .82314 1.6661 134.2 21.9 .400  40
2019 12 13 02  02 39 40.118   -01 37 51.38  .82344 1.6661 134.1 21.9 .408  40
2019 12 13 03  02 39 32.349   -01 36 25.60  .82373 1.6660 134.1 21.9 .416  40
2019 12 13 04  02 39 24.589   -01 34 59.83  .82403 1.6660 134.0 21.9 .424  40
2019 12 13 05  02 39 16.840   -01 33 34.08  .82433 1.6659 134.0 21.9 .432  40
2019 12 13 06  02 39 09.101   -01 32 08.35  .82462 1.6659 133.9 21.9 .441  41
2019 12 13 07  02 39 01.371   -01 30 42.63  .82492 1.6658 133.9 21.9 .449  41
2019 12 13 08  02 38 53.651   -01 29 16.94  .82522 1.6658 133.8 21.9 .457  41
2019 12 13 09  02 38 45.942   -01 27 51.26  .82552 1.6657 133.8 21.9 .466  41
2019 12 13 10  02 38 38.242   -01 26 25.59  .82582 1.6656 133.7 21.9 .474  41
2019 12 13 11  02 38 30.552   -01 24 59.95  .82612 1.6656 133.6 21.9 .483  41
2019 12 13 12  02 38 22.872   -01 23 34.32  .82642 1.6655 133.6 21.9 .491  41
2019 12 13 13  02 38 15.201   -01 22 08.71  .82672 1.6655 133.5 21.9 .500  41
2019 12 13 14  02 38 07.541   -01 20 43.12  .82703 1.6654 133.5 21.9 .509  41
2019 12 13 15  02 37 59.891   -01 19 17.55  .82733 1.6654 133.4 21.9 .517  41
2019 12 13 16  02 37 52.250   -01 17 52.00  .82763 1.6653 133.4 21.9 .526  41